This demonstration page uses our WeatherBlox Daily Observations layout. Learn more.

Hourly Observations for December 16, 2016

Temp ( °F °C ) Dew Point ( °F °C ) Humidity (%) Winds ( mph kmh ) Pressure ( in mb ) Visibility ( mi km ) Precip ( " mm )
12:27 am 00:27 Cloudy 23 -5 6 -14.4 48 48 SE 12 19 30.09 1019 10 16.0934 0 0
12:54 am 00:54 Cloudy 23 -5 7 -13.9 50 50 SE 13 20 30.03 1017 10 16.0934 0 0
1:54 am 01:54 Cloudy 22 -5.6 7 -13.9 52 52 SE 10 17 30 1016 10 16.0934 0 0
2:54 am 02:54 Cloudy 23 -5 7 -13.9 50 50 SE 10 17 29.98 1015 10 16.0934 0 0
3:54 am 03:54 Cloudy 23 -5 9 -12.8 55 55 SE 12 19 29.96 1015 10 16.0934 0 0
4:54 am 04:54 Cloudy 23 -5 9 -12.8 55 55 ESE 10 17 29.95 1014 10 16.0934 0 0
5:51 am 05:51 Cloudy 23 -5 9 -13 54 54 SE 10 17 29.97 1015 10 16.0934 0 0
5:54 am 05:54 Cloudy 23 -5 10 -12.2 57 57 SE 12 19 29.92 1013 10 16.0934 0 0
6:32 am 06:32 Cloudy 24 -4.4 11 -11.7 57 57 SE 9 15 29.94 1014 10 16.0934 0 0
6:54 am 06:54 Cloudy 24 -4.4 14 -10 65 65 SE 10 17 29.91 1013 10 16.0934 0 0
7:54 am 07:54 Cloudy 24 -4.4 15 -9.4 68 68 ESE 8 13 29.88 1012 10 16.0934 0 0
8:34 am 08:34 Cloudy 25 -3.9 15 -9.4 66 66 ESE 7 11 29.91 1013 10 16.0934 0 0
8:54 am 08:54 Cloudy 25 -3.9 15 -9.4 66 66 E 8 13 29.86 1011 10 16.0934 0 0
9:07 am 09:07 Cloudy 25 -4 16 -9 69 69 E 9 15 29.85 1011 10 16.0934 0 0
9:54 am 09:54 Cloudy 26 -3.3 17 -8.3 69 69 ESE 12 19 29.85 1011 10 16.0934 0 0
10:54 am 10:54 Cloudy 26 -3.3 20 -6.7 78 78 ESE 12 19 29.81 1009 10 16.0934 0 0
11:44 am 11:44 Cloudy with Light Snow 27 -3 21 -6 80 80 ESE 9 15 29.77 1008 2 3.21868 0 0
11:54 am 11:54 Cloudy with Light Snow 26 -3.3 23 -5 88 88 ESE 12 19 29.77 1008 2.5 4.02335 0 0.0254
12:54 pm 12:54 Cloudy with Mist and Fog 25 -3.9 23 -5 92 92 E 12 19 29.71 1006 2 3.21868 0 0.0254
1:54 pm 13:54 Cloudy with Mist and Fog 25 -3.9 24 -4.4 96 96 E 8 13 29.66 1005 2 3.21868 0 0
2:01 pm 14:01 Cloudy with Mist and Fog 25 -3.9 24 -4.4 96 96 ENE 7 11 29.68 1005 1.75 2.816345 0 0
2:41 pm 14:41 Cloudy with Light Freezing Rain 26 -3.3 25 -3.9 96 96 ENE 8 13 29.68 1005 1.25 2.011675 0 0.0254
2:54 pm 14:54 Cloudy with Mist and Fog 26 -3.3 25 -3.9 96 96 E 10 17 29.64 1004 1.25 2.011675 0 0.0254
3:19 pm 15:19 Cloudy with Mist and Fog 26 -3.3 25 -3.9 96 96 ENE 8 13 29.68 1005 2 3.21868 0 0
3:34 pm 15:34 Cloudy with Light Freezing Rain 27 -2.8 25 -3.9 92 92 ENE 8 13 29.68 1005 1.75 2.816345 0 0.0254
3:54 pm 15:54 Cloudy with Mist and Fog 27 -2.8 25 -3.9 92 92 ENE 9 15 29.65 1004 1.25 2.011675 0.01 0.254
4:25 pm 16:25 Cloudy with Mist and Fog 26 -3.3 25 -3.9 96 96 NE 10 17 29.65 1004 1.5 2.41401 0 0
4:54 pm 16:54 Cloudy with Mist and Fog 26 -3.3 25 -3.9 96 96 NE 9 15 29.63 1004 2 3.21868 0 0
5:11 pm 17:11 Cloudy with Mist and Fog 26 -3.3 25 -3.9 96 96 NE 9 15 29.65 1004 3 4.82802 0 0
5:54 pm 17:54 Cloudy with Mist and Fog 26 -3.3 24 -4.4 92 92 NNE 10 17 29.67 1005 3 4.82802 0 0
6:06 pm 18:06 Cloudy with Mist and Fog 27 -3 25 -4 93 93 NNE 12 19 29.68 1005 2.5 4.02335 0 0
6:32 pm 18:32 Cloudy with Mist and Fog 27 -3 25 -4 93 93 NNE 12 19 29.71 1006 3 4.82802 0 0
6:43 pm 18:43 Cloudy with Mist and Fog 26 -3.3 24 -4.4 92 92 NE 10 17 29.68 1005 2.5 4.02335 0 0
6:54 pm 18:54 Cloudy with Mist and Fog 26 -3.3 24 -4.4 92 92 NNE 10 17 29.67 1005 2.5 4.02335 0 0
7:54 pm 19:54 Cloudy with Mist and Fog 25 -3.9 23 -5 92 92 NNE 13 20 29.66 1005 3 4.82802 0 0
8:54 pm 20:54 Cloudy with Mist and Fog 24 -4.4 22 -5.6 91 91 NNE 14 22 29.68 1005 4 6.43736 0 0
9:54 pm 21:54 Cloudy with Mist and Fog 23 -5 21 -6.1 92 92 NNE 14 22 29.7 1006 6 9.65604 0 0
10:54 pm 22:54 Cloudy 23 -5 21 -6.1 92 92 N 14 22 29.73 1007 9 14.48406 0 0
11:54 pm 23:54 Cloudy with Mist and Fog 21 -6.1 20 -6.7 96 96 N 15 24 29.75 1007 6 9.65604 0 0

Powered by AerisWeather